Flag for U.S.A. Weather past 2 weeks in Tampa, Florida, U.S.A.

Now
67 °F

Clear.


Feels Like: 67 °F
Forecast: 63 / 84 °F
Wind: No wind

Location: Tampa International Airport

Current Time: Apr 2, 2015 at 4:03:02 AM

Latest Report: Apr 2, 2015 at 2:53 AM


Visibility: 10 mi

Pressure: 30.15 "Hg

Humidity: 85%

Dew point: 62 °F

Location of TampaLocation

Historic Weather in Tampa — Graph

°F

Tampa temperature yesterday

Maximum temperature yesterday: 80 °F (at 2:53 PM)
Minimum temperature yesterday: 68 °F (at 1:53 AM)
Average temperature yesterday: 73 °F

Past Weeks' High & Low Weather Summary

 TemperatureHumidityPressure
High85 °F (Mar 22, 1:53 PM)100% (Mar 26, 4:53 AM)30.37 "Hg (Mar 26, 4:53 AM)
Low50 °F (Mar 30, 5:53 AM)28% (Mar 29, 10:53 AM)29.83 "Hg (Mar 27, 5:53 AM)
Average71 °F69%30.07 "Hg
* Reported Mar 18 2:53 AM — Apr 2 2:53 AM, Tampa, Weather by CustomWeather, © 2015

Note: Actual official high and low records may vary slightly from our data, if they occured in-between our weather recording intervals... More about our weather records

Advertising

Tampa weather history for previous 24 hours

 ConditionsComfort  
Time TempWeatherWind HumidityBarometerVisibility
2:53 AM
Thu, Apr 2
67 °FClear.No wind85%30.15 "Hg10 mi
1:53 AM67 °FClear.3 mph85%30.16 "Hg10 mi
12:53 AM69 °FClear.No wind79%30.16 "Hg10 mi
11:53 PM
Wed, Apr 1
70 °FClear.No wind76%30.16 "Hg10 mi
10:53 PM70 °FClear.5 mph76%30.15 "Hg10 mi
9:53 PM71 °FPassing clouds.5 mph71%30.14 "Hg10 mi
8:53 PM71 °FPassing clouds.7 mph66%30.13 "Hg10 mi
7:53 PM74 °FPartly sunny.8 mph57%30.11 "Hg10 mi
6:53 PM77 °FPassing clouds.10 mph54%30.09 "Hg10 mi
5:53 PM79 °FPassing clouds.10 mph50%30.09 "Hg10 mi
4:53 PM80 °FPassing clouds.12 mph51%30.08 "Hg10 mi
3:53 PM80 °FScattered clouds.9 mph49%30.09 "Hg10 mi
2:53 PM80 °FScattered clouds.10 mph52%30.10 "Hg10 mi
1:53 PM79 °FScattered clouds.10 mph52%30.12 "Hg10 mi
12:53 PM77 °FBroken clouds.10 mph56%30.15 "Hg10 mi
11:53 AM77 °FScattered clouds.8 mph58%30.16 "Hg10 mi
10:53 AM75 °FScattered clouds.8 mph64%30.17 "Hg10 mi
9:53 AM73 °FScattered clouds.9 mph71%30.16 "Hg10 mi
8:53 AM70 °FPartly sunny.8 mph81%30.14 "Hg10 mi
7:53 AM69 °FPassing clouds.7 mph81%30.13 "Hg10 mi
6:53 AM68 °FPassing clouds.6 mph82%30.10 "Hg10 mi
5:53 AM69 °FClear.8 mph81%30.08 "Hg10 mi
4:53 AM69 °FClear.7 mph84%30.08 "Hg10 mi
Weather by CustomWeather, © 2015

See weather overviewHow to use our weather pages